Regional Weather Roundup
Issued by NWS

Home | Current Version | Previous Version | Text Only | Print | Product List | Glossary On
Versions: 1 2 3 4 5 6 7 8 9 10 11 12 13 14 15 16 17 18 19 20 21 22 23 24 25 26 27 28 29 30 31 32 33 34 35 36 37 38 39 40 41 42 43 44 45 46 47 48 49 50
000
ASUS43 KDTX 010010
RWRMI
MICHIGAN HOURLY REGIONAL WEATHER ROUNDUP
NATIONAL WEATHER SERVICE DETROIT/PONTIAC MI
800 PM EDT TUE SEP 30 2014

NOTE: "FAIR" INDICATES FEW OR NO CLOUDS BELOW 12,000 FEET WITH NO
SIGNIFICANT WEATHER AND/OR OBSTRUCTION TO VISIBILITY.

MIZ047>049-052>055-059>063-066>070-074>076-081>083-010100-
SOUTHEAST LOWER MICHIGAN

CITY           SKY/WX    TMP DP  RH WIND       PRES   REMARKS
ADRIAN         CLOUDY    54  49  83 NE12      30.01R
6HR MIN TEMP:  54; 6HR MAX TEMP:  58;

ALMA           CLOUDY    53  48  84 NE6       30.03S
ANN ARBOR      CLOUDY    53  46  77 N9        30.00S
BAD AXE        CLOUDY    53  53 100 N10       30.01R FOG
6HR MIN TEMP:  51; 6HR MAX TEMP:  53;

DETROIT CITY   CLOUDY    54  48  80 N9        30.01R
6HR MIN TEMP:  54; 6HR MAX TEMP:  57;

DETROIT        MOCLDY    54  48  80 N5        30.01R
6HR MIN TEMP:  54; 6HR MAX TEMP:  60;

FLINT          CLOUDY    53  48  83 N7        30.03S
6HR MIN TEMP:  53; 6HR MAX TEMP:  55;

GROSSE ILE     CLOUDY    55  50  82 N10       29.99S
HILLSDALE      CLOUDY    55  50  82 NE5       30.00R
6HR MIN TEMP:  55; 6HR MAX TEMP:  57;

HOWELL         CLOUDY    51  47  87 CALM      30.01F
6HR MIN TEMP:  51; 6HR MAX TEMP:  54;


CITY           SKY/WX    TMP DP  RH WIND       PRES   REMARKS
JACKSON        CLOUDY    53  48  83 NE7       30.01R
6HR MIN TEMP:  53; 6HR MAX TEMP:  59;

LAMBERTVILLE   CLOUDY    55  50  82 N5        30.00R
LANSING        CLOUDY    53  47  79 NE6       30.03S
6HR MIN TEMP:  53; 6HR MAX TEMP:  58;

LAPEER         NOT AVBL
MASON          CLOUDY    52  47  85 NE7       30.01S
MONROE         CLOUDY    54  52  94 N6        29.99R
MT. CLEMENS    MOCLDY    53  52  96 NW6       29.98R
6HR MIN TEMP:  52; 6HR MAX TEMP:  58;

PONTIAC        CLOUDY    51  47  86 N8        30.00S
6HR MIN TEMP:  51; 6HR MAX TEMP:  55; 6HR PCP: TRACE;

PORT HOPE        N/A     56  54  93 N13G20    29.99S
6HR MIN TEMP:  53; 6HR MAX TEMP:  56; 6HR PCP:  0.02;

PORT HURON     CLOUDY    52  52 100 CALM      30.00R FOG
TRI CITIES     CLOUDY    54  48  80 N6        30.05R
6HR MIN TEMP:  53; 6HR MAX TEMP:  55;

YPSILANTI      CLOUDY    57  47  69 N5        30.01S
6HR MIN TEMP:  57; 6HR MAX TEMP:  62;

$$
MIZ043>046-050>051-056>058-064>065-071>073-077>080-010100-
SOUTHWEST LOWER MICHIGAN

CITY           SKY/WX    TMP DP  RH WIND       PRES   REMARKS
BATTLE CREEK   CLOUDY    56  48  74 N3        30.01R
6HR MIN TEMP:  55; 6HR MAX TEMP:  57;

BIG RAPIDS     CLOUDY    52  51  93 CALM      30.03S
6HR MIN TEMP:  52; 6HR MAX TEMP:  54;

COLDWATER      CLOUDY    56  51  81 N3        30.00R
6HR MIN TEMP:  55; 6HR MAX TEMP:  57;

GRAND RAPIDS   CLOUDY    55  49  80 N7        30.01S
6HR MIN TEMP:  55; 6HR MAX TEMP:  59;

KALAMAZOO      CLOUDY    54  48  80 N6        30.02R
6HR MIN TEMP:  53; 6HR MAX TEMP:  56;

MARSHALL       CLOUDY    54  48  81 CALM      30.00R
MUSKEGON       CLOUDY    54  46  74 E7        30.03R
6HR MIN TEMP:  54; 6HR MAX TEMP:  58;

$$
MIZ016>042-010100-
NORTHERN LOWER MICHIGAN

CITY           SKY/WX    TMP DP  RH WIND       PRES   REMARKS
ALPENA         CLOUDY    51  48  89 NW3       30.06R
6HR MIN TEMP:  49; 6HR MAX TEMP:  51;

BEAVER ISLAND  CLOUDY    53  49  86 E3        30.06S
6HR MIN TEMP:  51; 6HR MAX TEMP:  55;

BELLAIRE       CLOUDY    51  47  84 NE7       30.06S
CADILLAC       CLOUDY    49  48  95 NE6       30.03S
CHARLEVOIX     CLOUDY    52  48  87 E8        30.08S
6HR MIN TEMP:  50; 6HR MAX TEMP:  53;

FRANKFORT      CLOUDY    53  47  81 CALM      30.05R
GAYLORD        CLOUDY    47  45  93 NE6       30.06R
6HR MIN TEMP:  47; 6HR MAX TEMP:  48;

GRAYLING       CLOUDY    49  47  92 N6        30.05F
6HR MIN TEMP:  49; 6HR MAX TEMP:  54;

HARBOR SPRINGS CLOUDY    51  47  85 NE6       30.06S
HOUGHTON LAKE  CLOUDY    50  46  86 NE5       30.05R
6HR MIN TEMP:  50; 6HR MAX TEMP:  53;

OSCODA         DRIZZLE   50  49  98 NW7       30.04R
PELLSTON       CLOUDY    51  47  86 E3        30.07S
6HR MIN TEMP:  50; 6HR MAX TEMP:  52;

TRAVERSE CITY  CLOUDY    53  47  79 NE6       30.04R
6HR MIN TEMP:  52; 6HR MAX TEMP:  54;

$$
MIZ007>008-015-010100-
EASTERN UPPER MICHIGAN

CITY           SKY/WX    TMP DP  RH WIND       PRES   REMARKS
MACKINAC ISLAN CLOUDY    51  49  93 NW3       30.06S
6HR MIN TEMP:  50; 6HR MAX TEMP:  53;

NEWBERRY       PTCLDY    49  46  89 CALM      30.06S
S. S. MARIE    MOCLDY    52  46  80 CALM      30.06S
6HR MIN TEMP:  52; 6HR MAX TEMP:  58;

$$
MIZ004>006-011>014-085-010100-
CENTRAL UPPER MICHIGAN

CITY           SKY/WX    TMP DP  RH WIND       PRES   REMARKS
MANISTIQUE     CLOUDY    52  49  87 CALM      30.06R
SAWYER-GWINN   CLOUDY    43  41  93 NE6       30.07S
$$
MIZ001>003-009>011-084-010100-
WESTERN UPPER MICHIGAN

CITY           SKY/WX    TMP DP  RH WIND       PRES   REMARKS
IRON MOUNTAIN  CLEAR     50  43  77 E8        30.03R
6HR MIN TEMP:  50; 6HR MAX TEMP:  58;

HOUGHTON       MOCLDY    43  39  86 E8        30.04F
6HR MIN TEMP:  43; 6HR MAX TEMP:  51;

COPPER HARBOR    N/A     45  39  79 S3        30.07F
6HR MIN TEMP:  45; 6HR MAX TEMP:  50;

$$

ABBREVIATIONS USED IN REMARKS
   TC - TEMPERATURE IN CELSIUS
  WCI - WIND CHILL INDEX
   HX - HEAT INDEX
  VSB - VISIBILITY



USA.gov is the U.S. government's official web portal to all federal, state and local government web resources and services.